Regional Weather Roundup
Issued by NWS

Home | Current Version | Previous Version | Text Only | Print | Product List | Glossary On
Versions: 1 2 3 4 5 6 7 8 9 10 11 12 13 14 15 16 17 18 19 20 21 22 23 24 25 26 27 28 29 30 31 32 33 34 35 36 37 38 39 40 41 42 43 44 45 46 47 48 49 50
000
ASUS44 KFWD 190315
RWRTX
NORTH TEXAS HOURLY WEATHER ROUNDUP
NATIONAL WEATHER SERVICE FORT WORTH TX
900 PM CST WED JAN 18 2017

NOTE: "FAIR" INDICATES FEW OR NO CLOUDS BELOW 12,000 FEET WITH NO
SIGNIFICANT WEATHER AND/OR OBSTRUCTIONS TO VISIBILITY.

TXZ118-119-190400-
DALLAS/FORT WORTH METROPLEX

CITY           SKY/WX    TMP DP  RH WIND       PRES   REMARKS
DFW AIRPORT    CLOUDY    53  50  89 SE5       29.98S
DALLAS LOVE    CLOUDY    53  49  86 CALM      30.00S
FTW MEACHAM    CLOUDY    51  47  86 S3        29.99R
DAL-EXECUTIVE  CLOUDY    51  50  96 S5        29.99S
FTW-ALLIANCE   MOCLDY    48  46  93 S3        29.98F FOG
FTW-NAS-JRB    PTCLDY    49  47  93 SW3       29.97F
FTW-SPINKS     CLOUDY    51  49  92 SW3       30.02R
ARLINGTON      CLOUDY    52  49  89 CALM      29.99S
GRAND PRAIRIE  MOCLDY    52  52 100 CALM      30.01S
ADDISON        MOCLDY    52  52 100 SE5       30.01R
MESQUITE       CLOUDY    50  49  99 CALM      30.00F
LANCASTER      CLOUDY    50  49  97 CALM      30.01S FOG
$$

TXZ091>094-102>105-117-120-121-131>134-190400-
NORTH CENTRAL TEXAS

CITY           SKY/WX    TMP DP  RH WIND       PRES   REMARKS
SHRMAN/DENISON CLOUDY   N/A N/A N/A CALM      29.99S
GAINESVILLE    MOCLDY    47  46  96 W3        30.00S FOG
BOWIE          FOG       43  43 100 CALM      29.98S VSB 1/2
BRIDGEPORT     PTCLDY    45  45 100 CALM      30.00S
DECATUR        CLOUDY    67  66  96 CALM      29.99S
DENTON         MOCLDY    49  49 100 S5        29.98F
MCKINNEY       CLOUDY    50  50 100 CALM      29.99S
BONHAM         CLOUDY    48  48 100 E3        29.98F FOG
GREENVILLE     CLOUDY    50  50 100 CALM      29.99F FOG
ROCKWALL       CLOUDY    50  50 100 CALM      30.00S
TERRELL        CLOUDY    50  49  96 CALM      30.00F FOG
WAXAHACHIE     CLOUDY    50  50 100 CALM      30.01S
CLEBURNE       PTCLDY    48  48 100 SW3       30.02R FOG
GRANBURY       PTCLDY    46  44  94 S3        30.02S
$$

TXZ083>090-098>101-113>116-127>130-139>142-154-155-190400-
WESTERN NORTH TEXAS

CITY           SKY/WX    TMP DP  RH WIND       PRES   REMARKS
WICHITA FALLS  PTCLDY    42  41  96 SE9       29.95F WCI  37
WF-KICKAPOO    CLEAR     45  45  98 SE7       29.97F
VERNON         CLEAR     46  42  85 SE8       29.94F
ABILENE        CLOUDY    43  43 100 S8        29.98F WCI  38
ABILENE-DYESS  CLEAR     43  38  81 S8        29.96F WCI  39
GRAHAM         CLOUDY    45  45 100 SE3       29.97S
BRECKENRIDGE   CLEAR     47  46  98 SE8       29.98S
CISCO          CLOUDY    50  48  93 SW6       29.99S
RANGER         CLOUDY    45  45 100 S5        30.00S
MINERAL WELLS  CLOUDY    43  42  97 S7        29.98F WCI  39
STEPHENVILLE   CLOUDY    49  46  90 CALM      30.03S
COMANCHE       CLOUDY    46  46 100 CALM      30.01S
BROWNWOOD      CLOUDY    50  50 100 S3        30.01S
COLEMAN        CLOUDY    46  45  93 SW5       30.00S
$$

TXZ143>147-156>162-174-175-190400-
CENTRAL TEXAS

CITY           SKY/WX    TMP DP  RH WIND       PRES   REMARKS
WACO           CLOUDY    51  50  96 W3        30.02R
WACO-MCGREGOR  CLOUDY    51  49  92 CALM      30.02F
HILLSBORO      CLOUDY    52  50  95 CALM      30.01S
CORSICANA      CLOUDY    51  50  96 CALM      30.02S FOG
MEXIA          CLOUDY    50  49  98 CALM      30.00F FOG
HEARNE         CLOUDY    51  51  99 W5        30.04S FOG
CAMERON        CLOUDY    51  50  97 NW3       30.03F
TEMPLE         CLOUDY    51  50  96 CALM      30.03S
KILLEEN        CLOUDY    51  49  93 CALM      30.01S
KILLEEN-SKYLRK CLOUDY    51  49  92 CALM      30.02S
FORT HOOD      CLOUDY    52  48  87 VRB6      30.03S
GATESVILLE     MOCLDY    52  50  93 CALM      30.03F
HAMILTON       CLOUDY    50  50 100 W3        30.01F
LAMPASAS       CLOUDY    51  49  92 CALM      30.01S
$$

TXZ095>097-106>112-122>126-135>138-148>153-164>167-190400-
EAST TEXAS

CITY           SKY/WX    TMP DP  RH WIND       PRES   REMARKS
PARIS          CLOUDY    48  46  93 E8        29.99F
SULPHUR SPRNGS CLOUDY    51  51 100 E3        30.01S
MOUNT PLEASANT CLOUDY    50  50 100 NE3       30.01F
GILMER           N/A     51  51  99 N6        29.99S
MINEOLA        CLOUDY    52  50  93 CALM      29.99F FOG
TYLER          CLOUDY    52  51  97 NW5       29.99S FOG
LONGVIEW       FOG       54  54 100 NW5       29.97F VSB 1/2
MARSHALL       CLOUDY    55  53  94 CALM      30.00S VSB 1
ATHENS         CLOUDY    50  50 100 CALM      29.99S
PALESTINE      CLOUDY    52  52 100 NW3       30.02R FOG
JACKSONVILLE   CLOUDY    52  52 100 CALM      30.00F FOG
HENDERSON      CLOUDY   N/A N/A N/A CALM      29.99F HAZE
CENTER         CLOUDY    60  59  96 CALM      29.98S FOG
NACOGDOCHES    CLOUDY    59  57  94 W5        29.96F
LUFKIN         CLOUDY    59  59 100 W3        29.97S FOG
$$

SUPPLEMENTAL OBSERVATIONS (CENTRAL)

CITY           SKY/WX    TMP DP  RH WIND       PRES   REMARKS
DENISON DAM      N/A     48  46  93 SE1         N/A
CADDO GRASSLND   N/A     50  48  93 CALM        N/A
PAT MAYSE LAKE   N/A     48  46  93 E2          N/A
GREENVILLE       N/A     50  48  93 E2          N/A
CEDAR HILL       N/A     52  50  93 SE2         N/A
ATHENS           N/A     52  50  93 E1          N/A
LAKE LIMESTONE   N/A     52  50  93 NW1         N/A
MCGREGOR         N/A     52  50  93 CALM        N/A
TEMPLE           N/A     52  50  93 CALM        N/A
$$

SUPPLEMENTAL OBSERVATIONS (WEST)

CITY           SKY/WX    TMP DP  RH WIND       PRES   REMARKS
MILLERS CREEK    N/A     46  45  93 S8          N/A
POSSUM KINGDOM   N/A     45  43  93 S6          N/A
LBJ GRASSLAND    N/A     48  45  87 SE3         N/A
GRANBURY         N/A     45  43  93 S3          N/A
COMANCHE         N/A     48  46  93 SW3         N/A
HAMBY            N/A     45  41  87 S7          N/A
IVIE RESERVOIR   N/A     46  43  87 S6          N/A
COLORADO BEND    N/A     48  43  81 W3          N/A
$$

SUPPLEMENTAL OBSERVATIONS (EAST)

CITY           SKY/WX    TMP DP  RH WIND       PRES   REMARKS
CLARKSVILLE      N/A     48  46  93 E6          N/A
TEXARKANA        N/A     48  46  93 N7          N/A
LINDEN           N/A     52  50  93 CALM        N/A
GILMER           N/A     52  50  93 N6          N/A
HENDERSON        N/A     55  54  94 N5          N/A
LUFKIN           N/A     57  55  94 MISG        N/A
N SABINE NF      N/A     59  57  94 MISG        N/A
S SABINE NF      N/A     59  57  94 CALM        N/A
$$

SUPPLEMENTAL OBSERVATIONS ARE A COLLECTION OF AUTOMATED INSTRUMENTS
THAT ARE MAINTAINED BY A VARIETY OF FEDERAL AND STATE AGENCIES.
CERTAIN ELEMENTS...SUCH AS HUMIDITY VALUES AND SUSTAINED WIND
SPEEDS...MAY BE APPROXIMATED.





USA.gov is the U.S. government's official web portal to all federal, state and local government web resources and services.